Track STARLINK-1886 now! 10-day predictions STARLINK-1886 is classified as:
1 47169U 20088AZ 21025.25001157 .00002969 00000-0 43437-4 0 9997 2 47169 53.0548 53.9709 0008177 279.0507 301.6090 15.59293216 10373